Tracking 18823 objects as of 22-October-2017
HD Live streaming from Space Station
objects crossing your sky now

GONETS D1M 1

Track GONETS D1M 1 now!
10-day predictions
GONETS D1M 1 is classified as:


NORAD ID: 28909
Int'l Code: 2005-048B
Perigee: 1,444.0 km
Apogee: 1,456.2 km
Inclination: 82.5 °
Period: 114.7 minutes
Semi major axis: 7821 km
RCS: 1.6605 m2 (large)
Launch date: December 21, 2005
Source: Commonwealth of Independent States (former USSR) (CIS)
Launch site: PLESETSK MISSILE AND SPACE COMPLEX (PKMTR)
aabbcc
Your satellite tracking list
Your tracking list is empty





NASA's NSSDC Master Catalog

Two Line Element Set (TLE):
1 28909U 05048B   17295.47900474  .00000060  00000-0  30681-3 0  9991
2 28909  82.4711 169.4679 0007831  14.9762 345.1554 12.55166896542268
Source of the keplerian elements: AFSPC